Regional Weather Roundup
Issued by NWS

Home | Current Version | Previous Version | Graphics & Text | Print | Product List | Glossary On
Versions: 1 2 3 4 5 6 7 8 9 10 11 12 13 14 15 16 17 18 19 20 21 22 23 24 25 26 27 28 29 30 31 32 33 34 35 36 37 38 39 40 41 42 43 44 45 46 47 48 49 50
632
ASUS43 KOAX 241910
RWRNE

WEATHER ROUNDUP FOR NEBRASKA
NATIONAL WEATHER SERVICE OMAHA NE
200 PM CDT SAT JUN 24 2017

NOTES: SATELLITE DATA IS BEING USED TO AUGMENT CLOUD COVER ABOVE
       12000 FEET.
       "FAIR" INDICATES FEW OR NO CLOUDS BELOW 12,000 FEET WITH NO
       SIGNIFICANT WEATHER AND/OR OBSTRUCTIONS TO VISIBILITY.

  * THESE STATIONS DO NOT REPORT WEATHER SUCH AS RAIN...SNOW OR FOG.

NEZ001>004-019>022-054>056-242000-
NEBRASKA PANHANDLE

CITY           SKY/WX    TMP DP  RH WIND       PRES   REMARKS
SCOTTSBLUFF    CLOUDY    70  35  27 VRB5      30.31F
ALLIANCE       MOSUNNY   75  33  21 NW13G20   30.29F
CHADRON        MOSUNNY   73  35  25 NE10      30.30R
GORDON         CLOUDY    65  32  30 NW7       30.31S
KIMBALL        MOSUNNY   69  39  33 SW5       30.34S
SIDNEY         PTSUNNY   74  33  22 VRB3      30.32S
$$

NEZ057>060-069>072-079>082-242000-
SOUTHWEST NEBRASKA

CITY           SKY/WX    TMP DP  RH WIND       PRES   REMARKS
NORTH PLATTE   CLOUDY    73  39  29 SW14      30.28R
IMPERIAL       CLOUDY    71  38  29 S5        30.29F
LEXINGTON      CLOUDY    71  39  30 SW12G20   30.28S
MCCOOK         CLOUDY    74  43  32 S8        30.28F
OGALLALA       PTSUNNY   73  32  22 N3        30.29F
$$

NEZ005>010-023>029-035>040-094-242000-
NORTH CENTRAL NEBRASKA

CITY           SKY/WX    TMP DP  RH WIND       PRES   REMARKS
VALENTINE      CLOUDY    74  28  18 NW16G31   30.24S
AINSWORTH      CLOUDY    72  34  24 NW22G28   30.24S
BROKEN BOW     MOSUNNY   77  35  21 W10G22    30.23F
O`NEILL        MOSUNNY   75  35  23 NW23G33   30.21S
ORD            MOSUNNY   76  33  21 NW20G29   30.21S
THEDFORD       PTSUNNY   74  35  23 NW12G23   30.26S
$$

NEZ041-046>049-061>064-073>077-083>087-242000-
SOUTH CENTRAL NEBRASKA

CITY           SKY/WX    TMP DP  RH WIND       PRES   REMARKS
GRAND ISLAND   SUNNY     77  36  22 W16G26    30.24F
AURORA         SUNNY     76  38  25 W16       30.24S
HASTINGS       SUNNY     74  37  26 W10       30.27F
HEBRON         CLOUDY    77  37  23 W6        30.25F
HOLDREGE       CLOUDY    68  39  34 SW6       30.29S
KEARNEY *      CLOUDY    75  39  27 SW16      30.27S
YORK           SUNNY     73  37  27 W17       30.22F
$$

NEZ011>018-030>034-042>045-242000-
NORTHEAST NEBRASKA

CITY           SKY/WX    TMP DP  RH WIND       PRES   REMARKS
NORFOLK        MOSUNNY   75  34  22 NW17G26   30.17F
ALBION         PTSUNNY   78  33  19 NW15G25   30.20S
BLAIR          MOSUNNY   77  38  24 W16G26    30.17F
FREMONT        PTSUNNY   76  37  24 W20G26    30.18F
TEKAMAH        MOSUNNY   81  35  19 W24       30.14F
WAYNE          PTSUNNY   76  33  20 NW18G38   30.16R
$$

NEZ050>053-065>068-078-088>093-242000-
SOUTHEAST NEBRASKA

CITY           SKY/WX    TMP DP  RH WIND       PRES   REMARKS
LINCOLN        MOSUNNY   79  38  22 NW8       30.21F
OMAHA EPPLEY   MOSUNNY   80  38  22 NW20G28   30.16F
BEATRICE       SUNNY     78  43  28 W12G17    30.22F
FALLS CITY     SUNNY     76  42  29 W12       30.21F
NEBRASKA CITY  MOSUNNY   76  47  35 W14       30.20F
PLATTSMOUTH    PTSUNNY   76  38  25 W13G21    30.18F
$$

NEZ044-045-051>053-067-242000-
OMAHA AREA

CITY           SKY/WX    TMP DP  RH WIND       PRES   REMARKS
OMAHA EPPLEY   MOSUNNY   80  38  22 NW20G28   30.16F
BLAIR          MOSUNNY   77  38  24 W16G26    30.17F
FREMONT        PTSUNNY   76  37  24 W20G26    30.18F
MILLARD        MOSUNNY   79  42  26 W13G23    30.17F
OFFUTT AFB     MOSUNNY   78  40  25 W18G25    30.17F
PLATTSMOUTH    PTSUNNY   76  38  25 W13G21    30.18F
WAHOO          FAIR      78  33  19 W18G26    30.18F
$$




USA.gov is the U.S. government's official web portal to all federal, state and local government web resources and services.